Погода в Первомайском

Россия / Оренбургская область     51°32′12″N   55°00′13″E
темп.,
°C
ветер,
м/с
пор.,
м/с
влажн.,
%
обл.,
%
осадки,
мм/ч
давл.,
гПа
погр.,
м
10 апреля, сб
сб1023:00+8вюв6137591 0.0 1024277
02:00+7вюв61475100 0.0 1024253
05:00+7юв7147470 0.0 1025269
08:00+7юв7166961 0.0 1026310
11:00+14юв9155466 0.0 1026471
14:00+18юв10134772 0.0 1026764
17:00+18юв10135599 0.0 1027867
20:00+11вюв9167984 0.0 1029383
11 апреля, вс
вс1123:00+8вюв9177812 0.0 1030364
02:00+6вюв7156680 0.0 1031323
05:00+5вюв71475100 0.0 1032296
08:00+5юв71474100 0.0 1033330
11:00+10юв795958 0.0 1033474
14:00+15юв68495 0.0 1032710
17:00+17юв67445 0.0 1032888
20:00+12вюв59675 0.0 1032190
12 апреля, пн
пн1223:00+8вюв510845 0.0 1033193
02:00+7вюв49705 0.0 1034156
05:00+5вюв476713 0.0 1035105
08:00+6вюв366529 0.0 1035153
11:00+12вюв454244 0.0 1035468
14:00+16в453013 0.0 1034798
17:00+17в55285 0.0 1033904
20:00+12в46465 0.0 103384
13 апреля, вт
вт1323:00+9вюв47607 0.0 1034107
02:00+6вюв476935 0.0 103598
05:00+5вюв477271 0.0 1035107
08:00+5вюв486370 0.0 1036186
11:00+11вюв573623 0.0 1035446
14:00+16вюв56275 0.0 1034808
17:00+17вюв55265 0.0 1032957
20:00+13в45435 0.0 103265
14 апреля, ср
ср1423:00+9вюв47534 0.0 1032101
02:00+7вюв46662 0.0 103280
05:00+6вюв33731 0.0 103223
08:00+7в34751 0.0 1031100
11:00+13в45532 0.0 1030477
14:00+17в44463 0.0 1028983
17:00+19в44430 0.0 10261217
20:00+15всв33560 0.0 102515